#timestamp,LO_Frequency,Hit,StdDev 
1594108815.8,286046995.0,P
1594108835.6,286046996.2,Y
1594108855.4,286047000.5,P
1594108875.3,286047001.2,N
1594108895.1,286047000.4,N
1594108915.9,286047000.0,N
1594108935.7,286047002.1,N
1594108955.5,286047000.9,N
1594108975.4,286046998.2,N
1594108995.2,286046999.9,N
1594109015.1,286046997.0,N
1594109016.0,286046997.0,N
1594109035.8,286046995.1,N
1594109055.6,286046995.4,N
1594109075.5,286046995.4,N
1594109095.3,286046996.3,N
1594109115.2,286046995.5,N
1594109135.9,286046997.3,N
1594109155.7,286046999.3,N
1594109175.6,286047000.9,N
1594109195.4,286047000.8,N
1594109215.2,286047000.6,N
1594109235.1,286046999.9,N
1594109236.0,286046999.9,N
1594109255.8,286047000.4,N
1594109275.7,286047002.2,N
1594109295.5,286047000.0,N
1594109315.3,286046998.8,N
1594109335.2,286046995.3,N
1594109355.0,286046996.6,N
1594109355.9,286046996.6,N
1594109375.7,286046997.7,N
1594109395.6,286046996.7,N
1594109415.4,286046999.4,N
1594109435.3,286046997.2,N
1594109455.1,286046995.3,N
1594109456.0,286046995.3,N
1594109475.8,286046993.9,N
1594109495.7,286046992.8,Y
1594109515.5,286046992.1,P
1594109535.3,286046992.0,N
1594109555.2,286046992.0,N
1594109575.0,286046991.3,Y
1594109575.9,286046991.3,P
1594109595.8,286046995.4,P
1594109615.6,286046997.9,N
1594109635.4,286046995.7,N
1594109655.3,286046996.1,N
1594109675.1,286046996.2,N
1594109695.9,286046998.0,N
1594109715.7,286046997.5,N
1594109735.5,286046995.4,N
1594109755.4,286046995.0,N
1594109775.2,286046993.6,Y
1594109795.0,286046997.9,P
1594109795.9,286046997.9,N
1594109815.8,286046995.4,P
1594109835.6,286046997.5,N
1594109855.5,286046994.9,Y
1594109875.3,286046999.0,P
1594109895.1,286046996.7,P
1594109915.9,286046995.4,P
1594109935.7,286046993.5,Y
1594109955.6,286046995.2,P
1594109975.4,286046994.9,P
1594109995.2,286046994.9,P
1594110015.1,286046994.9,Y
1594110016.0,286046994.9,P
1594110035.8,286047002.2,P
1594110055.6,286047003.2,N
1594110075.5,286047001.4,N
1594110095.3,286047002.8,N
1594110115.2,286047001.0,N
1594110135.9,286047000.5,N
1594110155.7,286046998.2,N
1594110175.6,286046998.6,N
1594110195.4,286047001.2,N
1594110215.2,286046999.0,N
1594110235.1,286046998.7,N
1594110236.0,286046998.7,N
1594110255.8,286046998.9,N
1594110275.7,286046999.2,N
1594110295.5,286046998.8,N
1594110315.3,286046998.4,N
1594110335.2,286047001.2,N
1594110355.0,286046998.1,N
1594110355.9,286046998.1,N
1594110375.8,286046998.8,N
1594110395.6,286046996.5,N
1594110415.4,286046997.5,N
1594110435.3,286046995.3,N
1594110455.1,286046997.6,N
1594110475.8,286046997.4,N
1594110495.7,286046999.5,N
1594110515.5,286046997.9,N
1594110535.4,286046996.2,N
1594110555.2,286046993.4,Y
1594110575.0,286046993.5,P
1594110575.9,286046993.5,N
1594110595.8,286046993.3,N
1594110615.6,286046992.2,Y
1594110635.5,286046999.1,P
1594110655.3,286046998.5,N
1594110675.1,286046996.7,N
1594110695.9,286046997.6,N
1594110715.7,286046996.2,N
1594110735.6,286046995.3,Y
1594110755.4,286046998.3,P
1594110775.2,286046998.7,N
1594110795.1,286046996.7,P
1594110796.0,286046996.7,Y
1594110815.8,286046997.5,P
1594110835.6,286046997.6,P
1594110855.5,286046994.9,P
1594110875.3,286046997.3,N
1594110895.2,286046997.4,N
1594110915.9,286046997.3,N
1594110935.7,286046995.2,Y
1594110955.6,286046999.0,P
1594110975.4,286046999.0,N
1594110995.2,286046999.0,N
1594111015.1,286046996.6,Y
1594111016.0,286046996.6,P
1594111035.8,286046999.0,N
1594111055.7,286047000.5,N
1594111075.5,286047001.6,N
1594111095.3,286047001.5,N
1594111115.2,286047002.2,N
1594111135.0,286047004.4,N
1594111135.9,286047004.4,N
1594111155.8,286047002.0,N
1594111175.6,286047002.1,N
1594111195.4,286047002.8,N
1594111215.3,286047002.7,N
1594111235.1,286047002.8,N
1594111255.8,286046996.9,N
1594111275.7,286046995.9,N
1594111295.5,286047011.9,Y
1594111315.4,286046992.0,P
1594111335.2,286046991.8,N
1594111355.0,286046992.5,N
1594111355.9,286046992.5,N
1594111375.8,286046991.8,N
1594111395.6,286046994.8,N
1594111415.4,286046991.8,N
1594111435.3,286046993.5,N
1594111455.1,286046993.9,N
1594111475.9,286046993.7,N
1594111495.7,286046994.5,N
1594111545.6,286046992.3,E
1594111555.5,286046994.9,N
1594111575.3,286047002.7,P
1594111595.2,286047000.6,N
1594111615.9,286047001.1,N
1594111635.7,286046999.9,N
1594111655.6,286046999.7,N
1594111675.4,286047000.6,N
1594111695.3,286047000.9,N
1594111715.1,286046999.4,N
1594111716.0,286046999.4,N
1594111735.8,286046997.2,N
1594111755.7,286046998.0,N
1594111775.5,286046995.3,N
1594111795.3,286046998.0,N
1594111815.2,286046994.9,N
1594111835.0,286046997.6,N
1594111835.9,286046997.6,N
1594111855.8,286046997.4,N
1594111875.6,286046994.9,N
1594111895.4,286046996.3,N
1594111915.3,286046994.0,N
1594111935.1,286046993.9,N
1594111955.8,286046993.9,N
1594111975.7,286046994.2,N
1594111995.5,286046992.2,N
1594112015.4,286046990.2,Y
1594112035.2,286046995.9,P
1594112055.0,286046994.2,P
1594112055.9,286046994.2,P
1594112075.8,286046996.1,N
1594112095.6,286046995.1,Y
1594112115.5,286046999.7,P
1594112135.3,286047000.5,N
1594112155.1,286046999.9,N
1594112175.9,286047000.5,N
1594112195.7,286046999.9,N
1594112215.5,286046998.6,N
1594112235.4,286046999.0,N
1594112255.2,286046997.5,N
1594112275.1,286046995.8,N
1594112276.0,286046995.8,N
1594112295.8,286046993.8,Y
1594112315.6,286046993.7,P
1594112335.5,286046996.4,N
1594112355.3,286046996.3,N
1594112375.2,286046994.3,Y
1594112395.9,286046999.2,P
